Regional Weather Roundup
Issued by NWS Albany, NY

Home | Current Version | Previous Version | Text Only | Print | Product List | Glossary On
Versions: 1 2 3 4 5 6 7 8 9 10 11 12 13 14 15 16 17 18 19 20 21 22 23 24 25 26 27 28 29 30 31 32 33 34 35 36 37 38 39 40 41 42 43 44 45 46 47 48 49 50
000
ASUS41 KALY 251810
RWRALY

NEW YORK STATE HOURLY WEATHER ROUNDUP
NATIONAL WEATHER SERVICE ALBANY NY
200 PM EDT WED APR 25 2018

NOTE: "FAIR" INDICATES FEW OR NO CLOUDS BELOW 12,000 FEET WITH NO
SIGNIFICANT WEATHER AND/OR NO OBSTRUCTIONS TO VISIBILITY.

NYZ032-033-038>043-046>054-057>066-NYZ062>081-082-084-251900-
EAST


CITY           SKY/WX    TMP DP  RH WIND       PRES   REMARKS
ALBANY         LGT RAIN  55  52  89 N6        29.84F FOG
GLENS FALLS    LGT RAIN  52  52 100 N7        29.86F FOG
POUGHKEEPSIE   CLOUDY    57  55  93 NW7       29.78F FOG
NEWBURGH       LGT RAIN  57  57 100 E6        29.79F FOG
MONTGOMERY     LGT RAIN  56  55  97 N9        29.77F FOG
WHITE PLAINS   FOG       56  55  97 E9        29.77F VSB 3/4
ISLIP          DRZL/FOG  57  57 100 SE20      29.77F VSB 1
NEW YORK CITY  CLOUDY    60  58  92 E14       29.75F FOG
CENTRAL PARK   CLOUDY    60  59  96 SE6       29.77F FOG
$$

NYZ005>009-017-018-044>046-055-056-251900-
CENTRAL


CITY           SKY/WX    TMP DP  RH WIND       PRES   REMARKS
FULTON         CLOUDY    57  50  77 VRB6      29.78F
SYRACUSE       LGT RAIN  54  53  97 E10       29.77F
ROME           LGT RAIN  52  51  97 SE7       29.81F
ELMIRA         CLOUDY    57  53  86 CALM      29.76F
BINGHAMTON     CLOUDY    53  51  93 SE9       29.76F
MONTICELLO     LGT RAIN  52  52 100 E8        29.79
$$

NYZ026>034-041>043-087-251900-
NORTH


CITY           SKY/WX    TMP DP  RH WIND       PRES   REMARKS
WATERTOWN      CLOUDY    56  55  97 CALM      29.78F FOG
FORT DRUM      NOT AVBL
OGDENSBURG     CLOUDY    56  53  91 E9        29.82F FOG
MASSENA        LGT RAIN  57  52  83 NE14      29.84F
SARANAC LAKE   LGT RAIN  52  50  93 E8        29.81F FOG
PLATTSBURGH    RAIN      53  50  89 SE5       29.89F FOG
$$

NYZ001>004-010>016-019>021-085-251900-
WEST


CITY           SKY/WX    TMP DP  RH WIND       PRES   REMARKS
NIAGARA FALLS  LGT RAIN  53  49  86 NW10      29.78F FOG
BUFFALO        DRIZZLE   53  50  89 SW12      29.78F
DUNKIRK        LGT RAIN  52  50  93 W7        29.81S
JAMESTOWN      LGT RAIN  52  48  87 W9        29.79F
WELLSVILLE     CLOUDY    55  50  83 SW5       29.77F
ROCHESTER      CLOUDY    58  52  80 CALM      29.76F
PENN YAN       CLOUDY    57  50  77 S6        29.76F
$$

             KEY
       WCI = WIND CHILL INDEX
       VSB = VISIBILITY
       HX  = HEAT INDEX
$$



USA.gov is the U.S. government's official web portal to all federal, state and local government web resources and services.